Year,Month,Day,Hour,Minute,Value (Times are PST for temperature in C)
2006,06,24,00,04,11.80
2006,06,24,00,05,11.80
2006,06,24,00,06,11.80
2006,06,24,00,07,11.80
2006,06,24,00,08,11.80
2006,06,24,00,09,11.80
2006,06,24,00,10,11.80
2006,06,24,00,11,11.80
2006,06,24,00,12,11.80
2006,06,24,00,13,11.80
2006,06,24,00,14,11.80
2006,06,24,00,15,11.80
2006,06,24,00,16,11.80
2006,06,24,00,17,11.80
2006,06,24,00,18,11.80
2006,06,24,00,19,11.80
2006,06,24,00,20,11.80
2006,06,24,00,21,11.80
2006,06,24,00,22,11.80
2006,06,24,00,23,11.80
2006,06,24,00,24,11.80
2006,06,24,00,25,11.80
2006,06,24,00,26,12.10
2006,06,24,00,27,12.10
2006,06,24,00,28,12.10
2006,06,24,00,29,12.10
2006,06,24,00,30,12.10
2006,06,24,00,31,12.10
2006,06,24,00,32,12.10
2006,06,24,00,33,12.10
2006,06,24,00,34,12.10
2006,06,24,00,35,12.10
2006,06,24,00,36,12.10
2006,06,24,00,37,12.10
2006,06,24,00,38,12.10
2006,06,24,00,39,12.10
2006,06,24,00,40,12.10
2006,06,24,00,41,12.10
2006,06,24,00,42,12.10
2006,06,24,00,43,12.10
2006,06,24,00,44,12.10
2006,06,24,00,45,12.10
2006,06,24,00,46,12.10
2006,06,24,00,47,12.10
2006,06,24,00,48,12.10
2006,06,24,00,49,12.10
2006,06,24,00,50,12.10
2006,06,24,00,51,12.10
2006,06,24,00,52,12.10
2006,06,24,00,53,12.10
2006,06,24,00,54,12.10
2006,06,24,00,55,12.10
2006,06,24,00,56,12.10
2006,06,24,00,57,12.10
2006,06,24,00,58,12.10
2006,06,24,00,59,12.40
2006,06,24,01,00,12.40
2006,06,24,01,02,12.40
2006,06,24,01,03,12.40
2006,06,24,01,04,12.40
2006,06,24,01,05,12.40
2006,06,24,01,06,12.40
2006,06,24,01,07,12.40
2006,06,24,01,08,12.40
2006,06,24,01,09,12.40
2006,06,24,01,10,12.40
2006,06,24,01,12,12.40
2006,06,24,01,13,12.40
2006,06,24,01,14,12.40
2006,06,24,01,15,12.40
2006,06,24,01,16,12.40
2006,06,24,01,17,12.40
2006,06,24,01,18,12.40
2006,06,24,01,19,13.20
2006,06,24,01,20,13.20
2006,06,24,01,21,13.20
2006,06,24,01,22,13.20
2006,06,24,01,23,13.20
2006,06,24,01,24,13.20
2006,06,24,01,25,13.20
2006,06,24,01,26,13.20
2006,06,24,01,27,13.20
2006,06,24,01,28,13.20
2006,06,24,01,29,13.20
2006,06,24,01,30,13.20
2006,06,24,01,31,13.20
2006,06,24,01,32,13.20
2006,06,24,01,33,13.20
2006,06,24,01,34,13.20
2006,06,24,01,35,13.20
2006,06,24,01,36,13.20
2006,06,24,01,37,13.20
2006,06,24,01,38,13.20
2006,06,24,01,39,13.20
2006,06,24,01,40,13.20
2006,06,24,01,41,13.20
2006,06,24,01,42,13.20
2006,06,24,01,43,13.20
2006,06,24,01,44,13.20
2006,06,24,01,45,13.20
2006,06,24,01,46,13.20
2006,06,24,01,47,13.20
2006,06,24,01,48,13.20
2006,06,24,01,49,13.20
2006,06,24,01,50,13.20
2006,06,24,01,51,13.20
2006,06,24,01,52,13.20
2006,06,24,01,53,13.20
2006,06,24,01,54,13.20
2006,06,24,01,55,13.20
2006,06,24,01,56,13.20
2006,06,24,01,57,12.90
2006,06,24,01,58,12.90
2006,06,24,01,59,12.90
2006,06,24,02,00,12.90
2006,06,24,02,01,12.90
2006,06,24,02,02,12.90
2006,06,24,02,03,12.90
2006,06,24,02,04,12.90
2006,06,24,02,05,12.90
2006,06,24,02,06,12.90
2006,06,24,02,07,12.90
2006,06,24,02,08,12.90
2006,06,24,02,09,12.90
2006,06,24,02,10,12.90
2006,06,24,02,11,12.90
2006,06,24,02,12,12.90
2006,06,24,02,13,12.90
2006,06,24,02,14,12.40
2006,06,24,02,15,12.40
2006,06,24,02,16,12.40
2006,06,24,02,17,12.40
2006,06,24,02,18,12.40
2006,06,24,02,19,12.40
2006,06,24,02,20,12.40
2006,06,24,02,21,12.40
2006,06,24,02,22,12.40
2006,06,24,02,23,12.40
2006,06,24,02,24,12.40
2006,06,24,02,25,12.40
2006,06,24,02,26,12.40
2006,06,24,02,27,12.40
2006,06,24,02,28,12.40
2006,06,24,02,29,12.40
2006,06,24,02,30,12.40
2006,06,24,02,31,12.40
2006,06,24,02,32,12.40
2006,06,24,02,33,12.40
2006,06,24,02,34,12.40
2006,06,24,02,35,12.10
2006,06,24,02,36,12.10
2006,06,24,02,37,12.10
2006,06,24,02,38,12.10
2006,06,24,02,39,12.10
2006,06,24,02,40,12.10
2006,06,24,02,41,12.10
2006,06,24,02,42,12.10
2006,06,24,02,43,12.10
2006,06,24,02,44,12.10
2006,06,24,02,45,12.10
2006,06,24,02,46,12.10
2006,06,24,02,47,12.10
2006,06,24,02,48,12.10
2006,06,24,02,49,12.10
2006,06,24,02,50,12.10
2006,06,24,02,51,12.10
2006,06,24,02,52,12.10
2006,06,24,02,53,12.10
2006,06,24,02,54,12.10
2006,06,24,02,55,12.10
2006,06,24,02,56,11.70
2006,06,24,02,57,11.70
2006,06,24,02,58,11.70
2006,06,24,02,59,11.70
2006,06,24,03,00,11.70
2006,06,24,03,01,11.70
2006,06,24,03,02,11.70
2006,06,24,03,03,11.70
2006,06,24,03,04,11.70
2006,06,24,03,05,11.70
2006,06,24,03,06,11.70
2006,06,24,03,07,11.70
2006,06,24,03,08,11.70
2006,06,24,03,09,11.70
2006,06,24,03,10,11.70
2006,06,24,03,11,11.70
2006,06,24,03,12,11.40
2006,06,24,03,13,11.40
2006,06,24,03,14,11.40
2006,06,24,03,15,11.40
2006,06,24,03,16,11.40
2006,06,24,03,18,11.40
2006,06,24,03,19,11.40
2006,06,24,03,20,11.40
2006,06,24,03,21,11.40
2006,06,24,03,22,11.40
2006,06,24,03,23,11.40
2006,06,24,03,24,11.40
2006,06,24,03,25,11.40
2006,06,24,03,26,11.40
2006,06,24,03,27,11.40
2006,06,24,03,28,11.40
2006,06,24,03,29,10.90
2006,06,24,03,30,10.90
2006,06,24,03,31,10.90
2006,06,24,03,32,10.90
2006,06,24,03,33,10.90
2006,06,24,03,34,10.90
2006,06,24,03,35,10.90
2006,06,24,03,36,10.90
2006,06,24,03,37,10.90
2006,06,24,03,38,10.90
2006,06,24,03,39,10.90
2006,06,24,03,40,10.90
2006,06,24,03,41,10.90
2006,06,24,03,42,10.90
2006,06,24,03,43,10.90
2006,06,24,03,45,10.90
2006,06,24,03,46,10.90
2006,06,24,03,47,10.90
2006,06,24,03,48,10.90
2006,06,24,03,49,10.90
2006,06,24,03,50,10.70
2006,06,24,03,51,10.70
2006,06,24,03,52,10.70
2006,06,24,03,53,10.70
2006,06,24,03,54,10.70
2006,06,24,03,55,10.70
2006,06,24,03,56,10.70
2006,06,24,03,57,10.70
2006,06,24,03,58,10.70
2006,06,24,03,59,10.70
2006,06,24,04,00,10.70
2006,06,24,04,01,10.70
2006,06,24,04,02,10.70
2006,06,24,04,03,10.70
2006,06,24,04,04,10.70
2006,06,24,04,05,10.70
2006,06,24,04,06,10.70
2006,06,24,04,07,10.70
2006,06,24,04,08,10.70
2006,06,24,04,09,10.70
2006,06,24,04,10,10.60
2006,06,24,04,12,10.60
2006,06,24,04,13,10.60
2006,06,24,04,14,10.60
2006,06,24,04,15,10.60
2006,06,24,04,16,10.60
2006,06,24,04,17,10.60
2006,06,24,04,18,10.60
2006,06,24,04,19,10.60
2006,06,24,04,20,10.60
2006,06,24,04,21,10.60
2006,06,24,04,22,10.60
2006,06,24,04,23,10.60
2006,06,24,04,24,10.60
2006,06,24,04,25,10.60
2006,06,24,04,26,10.60
2006,06,24,04,27,10.60
2006,06,24,04,28,10.60
2006,06,24,04,29,10.60
2006,06,24,04,30,10.60
2006,06,24,04,31,10.60
2006,06,24,04,32,10.60
2006,06,24,04,33,10.60
2006,06,24,04,34,10.60
2006,06,24,04,35,10.60
2006,06,24,04,36,10.60
2006,06,24,04,37,10.60
2006,06,24,04,38,10.60
2006,06,24,04,39,10.60
2006,06,24,04,40,10.60
2006,06,24,04,41,10.60
2006,06,24,04,42,10.60
2006,06,24,04,43,10.60
2006,06,24,04,44,10.60
2006,06,24,04,45,10.50
2006,06,24,04,46,10.50
2006,06,24,04,47,10.50
2006,06,24,04,48,10.50
2006,06,24,04,49,10.50
2006,06,24,04,50,10.50
2006,06,24,04,52,10.50
2006,06,24,04,53,10.50
2006,06,24,04,54,10.50
2006,06,24,04,55,10.50
2006,06,24,04,56,10.50
2006,06,24,04,57,10.50
2006,06,24,04,58,10.50
2006,06,24,04,59,10.50
2006,06,24,05,00,10.50
2006,06,24,05,02,10.50
2006,06,24,05,03,10.50
2006,06,24,05,04,10.50
2006,06,24,05,05,10.50
2006,06,24,05,06,10.30
2006,06,24,05,07,10.30
2006,06,24,05,08,10.30
2006,06,24,05,09,10.30
2006,06,24,05,10,10.30
2006,06,24,05,11,10.30
2006,06,24,05,12,10.30
2006,06,24,05,13,10.30
2006,06,24,05,14,10.30
2006,06,24,05,15,10.30
2006,06,24,05,16,10.30
2006,06,24,05,17,10.30
2006,06,24,05,18,10.30
2006,06,24,05,19,10.30
2006,06,24,05,20,10.30
2006,06,24,05,21,10.30
2006,06,24,05,22,10.30
2006,06,24,05,23,10.30
2006,06,24,05,24,10.30
2006,06,24,05,25,10.30
2006,06,24,05,26,10.30
2006,06,24,05,27,10.30
2006,06,24,05,28,10.30
2006,06,24,05,29,10.30
2006,06,24,05,30,10.30
2006,06,24,05,31,10.30
2006,06,24,05,32,10.30
2006,06,24,05,33,10.30
2006,06,24,05,34,10.30
2006,06,24,05,35,10.30
2006,06,24,05,36,10.30
2006,06,24,05,37,10.30
2006,06,24,05,38,10.30
2006,06,24,05,39,10.30
2006,06,24,05,40,10.30
2006,06,24,05,41,10.30
2006,06,24,05,42,10.30
2006,06,24,05,43,10.30
2006,06,24,05,44,10.30
2006,06,24,05,45,10.30
2006,06,24,05,46,10.30
2006,06,24,05,47,10.30
2006,06,24,05,48,10.30
2006,06,24,05,49,10.30
2006,06,24,05,50,10.30
2006,06,24,05,51,10.30
2006,06,24,05,52,10.30
2006,06,24,05,53,10.30
2006,06,24,05,54,10.30
2006,06,24,05,55,10.30
2006,06,24,05,56,10.30
2006,06,24,05,57,10.30
2006,06,24,05,58,10.30
2006,06,24,05,59,10.30
2006,06,24,06,00,10.30
2006,06,24,06,01,10.40
2006,06,24,06,02,10.40
2006,06,24,06,03,10.40
2006,06,24,06,04,10.40
2006,06,24,06,05,10.40
2006,06,24,06,06,10.40
2006,06,24,06,07,10.40
2006,06,24,06,08,10.40
2006,06,24,06,09,10.40
2006,06,24,06,10,10.40
2006,06,24,06,11,10.40
2006,06,24,06,12,10.40
2006,06,24,06,13,10.40
2006,06,24,06,14,10.40
2006,06,24,06,15,10.40
2006,06,24,06,16,10.40
2006,06,24,06,17,10.40
2006,06,24,06,18,10.40
2006,06,24,06,19,10.40
2006,06,24,06,20,10.40
2006,06,24,06,22,10.40
2006,06,24,06,23,10.80
2006,06,24,06,24,10.80
2006,06,24,06,25,10.80
2006,06,24,06,26,10.80
2006,06,24,06,27,10.80
2006,06,24,06,28,10.80
2006,06,24,06,29,10.80
2006,06,24,06,30,10.80
2006,06,24,06,31,10.80
2006,06,24,06,32,10.80
2006,06,24,06,33,10.80
2006,06,24,06,34,10.80
2006,06,24,06,35,10.80
2006,06,24,06,36,10.80
2006,06,24,06,37,10.80
2006,06,24,06,38,10.80
2006,06,24,06,39,10.80
2006,06,24,06,40,10.80
2006,06,24,06,41,10.80
2006,06,24,06,42,10.80
2006,06,24,06,43,10.80
2006,06,24,06,44,10.80
2006,06,24,06,45,10.80
2006,06,24,06,46,10.80
2006,06,24,06,47,11.00
2006,06,24,06,48,11.00
2006,06,24,06,49,11.00
2006,06,24,06,50,11.00
2006,06,24,06,51,11.00
2006,06,24,06,52,11.00
2006,06,24,06,53,11.00
2006,06,24,06,54,11.00
2006,06,24,06,55,11.00
2006,06,24,06,56,11.00
2006,06,24,06,57,11.00
2006,06,24,06,58,11.00
2006,06,24,06,59,11.10
2006,06,24,07,00,11.10
2006,06,24,07,01,11.10
2006,06,24,07,02,11.10
2006,06,24,07,03,11.10
2006,06,24,07,04,11.10
2006,06,24,07,05,11.10
2006,06,24,07,06,11.10
2006,06,24,07,07,11.10
2006,06,24,07,08,11.10
2006,06,24,07,09,11.10
2006,06,24,07,10,11.10
2006,06,24,07,11,11.10
2006,06,24,07,12,11.10
2006,06,24,07,13,11.10
2006,06,24,07,14,11.10
2006,06,24,07,15,11.10
2006,06,24,07,16,11.20
2006,06,24,07,17,11.20
2006,06,24,07,18,11.20
2006,06,24,07,19,11.20
2006,06,24,07,20,11.20
2006,06,24,07,21,11.20
2006,06,24,07,22,11.20
2006,06,24,07,23,11.20
2006,06,24,07,24,11.20
2006,06,24,07,25,11.20
2006,06,24,07,26,11.20
2006,06,24,07,27,11.20
2006,06,24,07,28,11.20
2006,06,24,07,29,11.20
2006,06,24,07,30,11.20
2006,06,24,07,31,11.20
2006,06,24,07,32,11.20
2006,06,24,07,33,11.20
2006,06,24,07,34,11.20
2006,06,24,07,35,11.20
2006,06,24,07,36,11.20
2006,06,24,07,37,12.10
2006,06,24,07,38,12.10
2006,06,24,07,39,12.10
2006,06,24,07,40,12.10
2006,06,24,07,41,12.10
2006,06,24,07,42,12.10
2006,06,24,07,43,12.10
2006,06,24,07,44,12.10
2006,06,24,07,45,12.10
2006,06,24,07,46,12.10
2006,06,24,07,48,12.10
2006,06,24,07,49,12.10
2006,06,24,07,50,12.10
2006,06,24,07,52,12.10
2006,06,24,07,53,12.10
2006,06,24,07,55,12.10
2006,06,24,07,56,12.10
2006,06,24,07,57,12.10
2006,06,24,07,58,12.10
2006,06,24,07,59,12.20
2006,06,24,08,01,12.20
2006,06,24,08,02,12.20
2006,06,24,08,03,12.20
2006,06,24,08,04,12.20
2006,06,24,08,05,12.20
2006,06,24,08,06,12.20
2006,06,24,08,07,12.20
2006,06,24,08,08,12.20
2006,06,24,08,09,12.20
2006,06,24,08,10,12.20
2006,06,24,08,11,12.20
2006,06,24,08,12,12.20
2006,06,24,08,13,12.20
2006,06,24,08,14,12.60
2006,06,24,08,15,12.60
2006,06,24,08,16,12.60
2006,06,24,08,17,12.60
2006,06,24,08,18,12.60
2006,06,24,08,19,12.60
2006,06,24,08,20,12.60
2006,06,24,08,21,12.60
2006,06,24,08,22,12.60
2006,06,24,08,23,12.60
2006,06,24,08,24,12.60
2006,06,24,08,25,12.60
2006,06,24,08,26,12.60
2006,06,24,08,27,12.60
2006,06,24,08,28,12.60
2006,06,24,08,29,12.60
2006,06,24,08,30,12.60
2006,06,24,08,31,12.30
2006,06,24,08,32,12.30
2006,06,24,08,33,12.30
2006,06,24,08,34,12.30
2006,06,24,08,35,12.30
2006,06,24,08,36,12.30
2006,06,24,08,37,12.30
2006,06,24,08,38,12.30
2006,06,24,08,39,12.30
2006,06,24,08,40,12.30
2006,06,24,08,41,12.30
2006,06,24,08,42,12.30
2006,06,24,08,43,12.30
2006,06,24,08,44,12.30
2006,06,24,08,45,12.30
2006,06,24,08,46,12.30
2006,06,24,08,48,12.30
2006,06,24,08,49,12.30
2006,06,24,08,50,12.30
2006,06,24,08,51,12.30
2006,06,24,08,52,12.30
2006,06,24,08,53,12.90
2006,06,24,08,54,12.90
2006,06,24,08,55,12.90
2006,06,24,08,56,12.90
2006,06,24,08,57,12.90
2006,06,24,08,58,12.90
2006,06,24,08,59,12.90
2006,06,24,09,00,12.90
2006,06,24,09,01,12.90
2006,06,24,09,02,12.90
2006,06,24,09,03,12.90
2006,06,24,09,04,12.90
2006,06,24,09,05,12.90
2006,06,24,09,06,12.90
2006,06,24,09,07,12.90
2006,06,24,09,08,12.90
2006,06,24,09,09,12.90
2006,06,24,09,10,12.90
2006,06,24,09,11,12.90
2006,06,24,09,12,12.90
2006,06,24,09,13,12.90
2006,06,24,09,14,13.80
2006,06,24,09,15,13.80
2006,06,24,09,16,13.80
2006,06,24,09,17,13.80
2006,06,24,09,18,13.80
2006,06,24,09,19,13.80
2006,06,24,09,20,13.80
2006,06,24,09,22,13.80
2006,06,24,09,23,13.80
2006,06,24,09,24,13.80
2006,06,24,09,25,13.80
2006,06,24,09,26,13.80
2006,06,24,09,27,13.80
2006,06,24,09,28,13.80
2006,06,24,09,29,13.80
2006,06,24,09,30,13.80
2006,06,24,09,31,13.80
2006,06,24,09,32,13.80
2006,06,24,09,33,13.80
2006,06,24,09,34,13.80
2006,06,24,09,35,13.80
2006,06,24,09,36,13.80
2006,06,24,09,37,13.80
2006,06,24,09,38,13.80
2006,06,24,09,39,13.80
2006,06,24,09,40,13.80
2006,06,24,09,41,13.80
2006,06,24,09,42,13.80
2006,06,24,09,43,13.80
2006,06,24,09,44,13.80
2006,06,24,09,45,14.90
2006,06,24,09,46,14.90
2006,06,24,09,47,14.90
2006,06,24,09,48,14.90
2006,06,24,09,49,14.90
2006,06,24,09,50,14.90
2006,06,24,09,51,14.90
2006,06,24,09,52,14.90
2006,06,24,09,53,14.90
2006,06,24,09,54,14.90
2006,06,24,09,55,14.90
2006,06,24,09,56,14.90
2006,06,24,09,57,14.90
2006,06,24,09,58,14.90
2006,06,24,09,59,14.90
2006,06,24,10,00,14.90
2006,06,24,10,01,14.90
2006,06,24,10,02,14.90
2006,06,24,10,03,14.90
2006,06,24,10,04,14.90
2006,06,24,10,05,14.90
2006,06,24,10,06,15.60
2006,06,24,10,07,15.60
2006,06,24,10,08,15.60
2006,06,24,10,09,15.60
2006,06,24,10,10,15.60
2006,06,24,10,12,15.60
2006,06,24,10,13,15.60
2006,06,24,10,14,15.60
2006,06,24,10,15,15.60
2006,06,24,10,16,15.60
2006,06,24,10,17,15.60
2006,06,24,10,18,15.60
2006,06,24,10,19,15.60
2006,06,24,10,20,15.60
2006,06,24,10,22,15.60
2006,06,24,10,23,15.60
2006,06,24,10,24,15.60
2006,06,24,10,25,15.60
2006,06,24,10,26,15.60
2006,06,24,10,27,15.60
2006,06,24,10,28,15.80
2006,06,24,10,29,15.80
2006,06,24,10,30,15.80
2006,06,24,10,31,15.80
2006,06,24,10,32,15.80
2006,06,24,10,33,15.80
2006,06,24,10,34,15.80
2006,06,24,10,35,15.80
2006,06,24,10,36,15.80
2006,06,24,10,37,15.80
2006,06,24,10,38,15.80
2006,06,24,10,39,15.80
2006,06,24,10,40,15.80
2006,06,24,10,41,15.80
2006,06,24,10,42,15.80
2006,06,24,10,43,15.80
2006,06,24,10,44,15.40
2006,06,24,10,45,15.40
2006,06,24,10,46,15.40
2006,06,24,10,47,15.40
2006,06,24,10,48,15.40
2006,06,24,10,49,15.40
2006,06,24,10,50,15.40
2006,06,24,10,51,15.40
2006,06,24,10,52,15.40
2006,06,24,10,53,15.40
2006,06,24,10,54,15.40
2006,06,24,10,55,15.40
2006,06,24,10,56,15.40
2006,06,24,10,57,15.40
2006,06,24,10,58,15.40
2006,06,24,10,59,15.40
2006,06,24,11,00,15.40
2006,06,24,11,01,15.60
2006,06,24,11,02,15.60
2006,06,24,11,03,15.60
2006,06,24,11,04,15.60
2006,06,24,11,05,15.60
2006,06,24,11,06,15.60
2006,06,24,11,07,15.60
2006,06,24,11,08,15.60
2006,06,24,11,09,15.60
2006,06,24,11,10,15.60
2006,06,24,11,11,15.60
2006,06,24,11,12,15.60
2006,06,24,11,13,15.60
2006,06,24,11,14,15.60
2006,06,24,11,15,15.60
2006,06,24,11,16,15.60
2006,06,24,11,17,15.60
2006,06,24,11,18,15.60
2006,06,24,11,19,15.60
2006,06,24,11,20,15.60
2006,06,24,11,21,15.60
2006,06,24,11,22,15.60
2006,06,24,11,23,15.90
2006,06,24,11,24,15.90
2006,06,24,11,25,15.90
2006,06,24,11,26,15.90
2006,06,24,11,27,15.90
2006,06,24,11,28,15.90
2006,06,24,11,29,15.90
2006,06,24,11,30,15.90
2006,06,24,11,31,15.90
2006,06,24,11,32,15.90
2006,06,24,11,33,15.90
2006,06,24,11,34,15.90
2006,06,24,11,35,15.90
2006,06,24,11,36,15.90
2006,06,24,11,37,15.90
2006,06,24,11,38,15.90
2006,06,24,11,39,15.90
2006,06,24,11,40,15.90
2006,06,24,11,41,15.90
2006,06,24,11,42,15.90
2006,06,24,11,43,15.90
2006,06,24,11,44,15.90
2006,06,24,11,45,16.00
2006,06,24,11,46,16.00
2006,06,24,11,47,16.00
2006,06,24,11,48,16.00
2006,06,24,11,49,16.00
2006,06,24,11,50,16.00
2006,06,24,11,51,16.00
2006,06,24,11,52,16.00
2006,06,24,11,53,16.00
2006,06,24,11,54,16.00
2006,06,24,11,55,16.00
2006,06,24,11,56,16.00
2006,06,24,11,57,16.00
2006,06,24,11,58,16.00
2006,06,24,11,59,16.00
2006,06,24,12,00,15.90
2006,06,24,12,01,15.90
2006,06,24,12,02,15.90
2006,06,24,12,03,15.90
2006,06,24,12,04,15.90
2006,06,24,12,05,15.90
2006,06,24,12,06,15.90
2006,06,24,12,07,15.90
2006,06,24,12,08,15.90
2006,06,24,12,09,15.90
2006,06,24,12,10,15.90
2006,06,24,12,11,15.90
2006,06,24,12,12,15.90
2006,06,24,12,13,15.90
2006,06,24,12,14,15.90
2006,06,24,12,15,15.90
2006,06,24,12,16,15.90
2006,06,24,12,17,15.90
2006,06,24,12,18,15.90
2006,06,24,12,19,15.90
2006,06,24,12,20,15.90
2006,06,24,12,21,15.90
2006,06,24,12,22,15.90
2006,06,24,12,23,15.90
2006,06,24,12,24,15.90
2006,06,24,12,25,15.90
2006,06,24,12,26,15.90
2006,06,24,12,27,15.90
2006,06,24,12,28,15.90
2006,06,24,12,29,15.90
2006,06,24,12,30,15.90
2006,06,24,12,31,15.90
2006,06,24,12,32,15.90
2006,06,24,12,33,15.90
2006,06,24,12,34,15.90
2006,06,24,12,35,15.90
2006,06,24,12,36,15.90
2006,06,24,12,37,15.90
2006,06,24,12,38,15.90
2006,06,24,12,39,16.80
2006,06,24,12,40,16.80
2006,06,24,12,41,16.80
2006,06,24,12,42,16.80
2006,06,24,12,43,16.80
2006,06,24,12,44,16.80
2006,06,24,12,45,16.80
2006,06,24,12,46,16.80
2006,06,24,12,47,16.80
2006,06,24,12,48,16.80
2006,06,24,12,49,16.80
2006,06,24,12,50,16.80
2006,06,24,12,51,16.80
2006,06,24,12,52,16.80
2006,06,24,12,53,16.80
2006,06,24,12,54,16.80
2006,06,24,12,55,16.80
2006,06,24,12,56,16.80
2006,06,24,12,57,16.80
2006,06,24,12,58,16.80
2006,06,24,12,59,16.80
2006,06,24,13,00,16.80
2006,06,24,13,01,16.80
2006,06,24,13,02,16.80
2006,06,24,13,03,16.80
2006,06,24,13,04,16.80
2006,06,24,13,05,16.80
2006,06,24,13,06,16.80
2006,06,24,13,07,16.80
2006,06,24,13,08,16.80
2006,06,24,13,09,16.80
2006,06,24,13,10,16.80
2006,06,24,13,11,16.80
2006,06,24,13,12,16.80
2006,06,24,13,13,16.80
2006,06,24,13,14,16.80
2006,06,24,13,15,16.70
2006,06,24,13,16,16.70
2006,06,24,13,17,16.70
2006,06,24,13,18,16.70
2006,06,24,13,19,16.70
2006,06,24,13,20,16.70
2006,06,24,13,21,16.70
2006,06,24,13,23,16.70
2006,06,24,13,24,16.70
2006,06,24,13,25,16.70
2006,06,24,13,26,16.70
2006,06,24,13,27,16.70
2006,06,24,13,28,16.70
2006,06,24,13,29,16.70
2006,06,24,13,30,16.70
2006,06,24,13,31,16.70
2006,06,24,13,32,16.60
2006,06,24,13,33,16.60
2006,06,24,13,34,16.60
2006,06,24,13,35,16.60
2006,06,24,13,36,16.60
2006,06,24,13,37,16.60
2006,06,24,13,38,16.60
2006,06,24,13,39,16.60
2006,06,24,13,40,16.60
2006,06,24,13,42,16.60
2006,06,24,13,43,16.60
2006,06,24,13,44,16.60
2006,06,24,13,45,16.60
2006,06,24,13,46,16.60
2006,06,24,13,47,16.60
2006,06,24,13,48,16.60
2006,06,24,13,49,16.60
2006,06,24,13,50,16.60
2006,06,24,13,51,16.60
2006,06,24,13,52,16.60
2006,06,24,13,53,16.60
2006,06,24,13,54,17.40
2006,06,24,13,55,17.40
2006,06,24,13,56,17.40
2006,06,24,13,57,17.40
2006,06,24,13,58,17.40
2006,06,24,13,59,17.40
2006,06,24,14,00,17.40
2006,06,24,14,01,17.40
2006,06,24,14,02,17.40
2006,06,24,14,03,17.40
2006,06,24,14,04,17.40
2006,06,24,14,05,17.40
2006,06,24,14,06,17.40
2006,06,24,14,07,17.40
2006,06,24,14,08,17.40
2006,06,24,14,09,17.40
2006,06,24,14,10,17.40
2006,06,24,14,11,17.40
2006,06,24,14,12,17.40
2006,06,24,14,13,17.40
2006,06,24,14,14,16.90
2006,06,24,14,15,16.90
2006,06,24,14,17,16.90
2006,06,24,14,18,16.90
2006,06,24,14,19,16.90
2006,06,24,14,20,16.90
2006,06,24,14,21,16.90
2006,06,24,14,22,16.90
2006,06,24,14,23,16.90
2006,06,24,14,24,16.90
2006,06,24,14,25,16.90
2006,06,24,14,27,16.90
2006,06,24,14,28,16.90
2006,06,24,14,29,16.90
2006,06,24,14,30,16.70
2006,06,24,14,31,16.70
2006,06,24,14,32,16.70
2006,06,24,14,34,16.70
2006,06,24,14,35,16.70
2006,06,24,14,36,16.70
2006,06,24,14,37,16.70
2006,06,24,14,38,16.70
2006,06,24,14,39,16.70
2006,06,24,14,40,16.70
2006,06,24,14,42,16.70
2006,06,24,14,43,16.70
2006,06,24,14,44,16.70
2006,06,24,14,45,16.70
2006,06,24,14,46,16.70
2006,06,24,14,47,17.00
2006,06,24,14,48,17.00
2006,06,24,14,50,17.00
2006,06,24,14,51,17.00
2006,06,24,14,52,17.00
2006,06,24,14,53,17.00
2006,06,24,14,54,17.00
2006,06,24,14,55,17.00
2006,06,24,14,56,17.00
2006,06,24,14,57,17.00
2006,06,24,14,58,17.00
2006,06,24,14,59,17.00
2006,06,24,15,00,17.00
2006,06,24,15,01,17.00
2006,06,24,15,02,17.00
2006,06,24,15,03,17.00
2006,06,24,15,04,17.00
2006,06,24,15,05,17.00
2006,06,24,15,06,17.00
2006,06,24,15,07,17.00
2006,06,24,15,08,17.00
2006,06,24,15,09,17.00
2006,06,24,15,10,17.00
2006,06,24,15,11,17.00
2006,06,24,15,12,17.00
2006,06,24,15,13,17.00
2006,06,24,15,14,17.00
2006,06,24,15,15,17.00
2006,06,24,15,16,17.00
2006,06,24,15,17,17.00
2006,06,24,15,18,17.00
2006,06,24,15,19,17.00
2006,06,24,15,20,17.00
2006,06,24,15,21,17.00
2006,06,24,15,22,17.00
2006,06,24,15,23,17.00
2006,06,24,15,24,17.00
2006,06,24,15,25,17.00
2006,06,24,15,26,17.00
2006,06,24,15,27,17.00
2006,06,24,15,28,17.00
2006,06,24,15,29,17.90
2006,06,24,15,30,17.90
2006,06,24,15,31,17.90
2006,06,24,15,32,17.90
2006,06,24,15,33,17.90
2006,06,24,15,34,17.90
2006,06,24,15,35,17.90
2006,06,24,15,36,17.90
2006,06,24,15,37,17.90
2006,06,24,15,38,17.90
2006,06,24,15,39,17.90
2006,06,24,15,40,17.90
2006,06,24,15,41,17.90
2006,06,24,15,42,17.90
2006,06,24,15,43,17.90
2006,06,24,15,44,17.90
2006,06,24,15,45,18.40
2006,06,24,15,46,18.40
2006,06,24,15,47,18.40
2006,06,24,15,48,18.40
2006,06,24,15,49,18.40
2006,06,24,15,50,18.40
2006,06,24,15,51,18.40
2006,06,24,15,52,18.40
2006,06,24,15,53,18.40
2006,06,24,15,54,18.40
2006,06,24,15,55,18.40
2006,06,24,15,56,18.40
2006,06,24,15,57,18.40
2006,06,24,15,58,18.40
2006,06,24,15,59,18.40
2006,06,24,16,00,18.40
2006,06,24,16,01,18.40
2006,06,24,16,03,18.90
2006,06,24,16,04,18.90
2006,06,24,16,05,18.90
2006,06,24,16,06,18.90
2006,06,24,16,07,18.90
2006,06,24,16,08,18.90
2006,06,24,16,09,18.90
2006,06,24,16,10,18.90
2006,06,24,16,11,18.90
2006,06,24,16,12,18.90
2006,06,24,16,13,18.90
2006,06,24,16,15,18.90
2006,06,24,16,16,18.90
2006,06,24,16,17,18.90
2006,06,24,16,18,18.90
2006,06,24,16,19,18.90
2006,06,24,16,20,18.90
2006,06,24,16,21,18.90
2006,06,24,16,23,18.90
2006,06,24,16,24,18.40
2006,06,24,16,25,18.40
2006,06,24,16,26,18.40
2006,06,24,16,27,18.40
2006,06,24,16,28,18.40
2006,06,24,16,29,18.40
2006,06,24,16,30,18.40
2006,06,24,16,31,18.40
2006,06,24,16,33,18.40
2006,06,24,16,34,18.40
2006,06,24,16,35,18.40
2006,06,24,16,36,18.40
2006,06,24,16,37,18.40
2006,06,24,16,38,18.40
2006,06,24,16,39,18.40
2006,06,24,16,40,18.40
2006,06,24,16,41,18.40
2006,06,24,16,42,18.40
2006,06,24,16,43,18.40
2006,06,24,16,44,18.40
2006,06,24,16,45,18.40
2006,06,24,16,46,19.30
2006,06,24,16,47,19.30
2006,06,24,16,48,19.30
2006,06,24,16,49,19.30
2006,06,24,16,50,19.30
2006,06,24,16,51,19.30
2006,06,24,16,52,19.30
2006,06,24,16,53,19.30
2006,06,24,16,54,19.30
2006,06,24,16,55,19.30
2006,06,24,16,56,19.30
2006,06,24,16,57,19.30
2006,06,24,16,58,19.30
2006,06,24,16,59,19.30
2006,06,24,17,01,19.10
2006,06,24,17,02,19.10
2006,06,24,17,03,19.10
2006,06,24,17,04,19.10
2006,06,24,17,05,19.10
2006,06,24,17,06,19.10
2006,06,24,17,07,19.10
2006,06,24,17,08,19.10
2006,06,24,17,09,19.10
2006,06,24,17,10,19.10
2006,06,24,17,11,19.10
2006,06,24,17,12,19.10
2006,06,24,17,13,19.10
2006,06,24,17,14,19.10
2006,06,24,17,15,19.10
2006,06,24,17,16,20.30
2006,06,24,17,18,20.30
2006,06,24,17,19,20.30
2006,06,24,17,20,20.30
2006,06,24,17,21,20.30
2006,06,24,17,22,20.30
2006,06,24,17,23,20.30
2006,06,24,17,24,20.30
2006,06,24,17,25,20.30
2006,06,24,17,26,20.30
2006,06,24,17,27,20.30
2006,06,24,17,28,20.30
2006,06,24,17,29,20.30
2006,06,24,17,30,20.30
2006,06,24,17,31,20.30
2006,06,24,17,32,20.30
2006,06,24,17,33,20.30
2006,06,24,17,34,20.30
2006,06,24,17,35,20.30
2006,06,24,17,36,20.30
2006,06,24,17,37,20.30
2006,06,24,17,38,20.30
2006,06,24,17,39,20.00
2006,06,24,17,40,20.00
2006,06,24,17,41,20.00
2006,06,24,17,42,20.00
2006,06,24,17,43,20.00
2006,06,24,17,44,20.00
2006,06,24,17,45,20.00
2006,06,24,17,46,20.00
2006,06,24,17,47,20.00
2006,06,24,17,48,20.00
2006,06,24,17,49,20.00
2006,06,24,17,50,20.00
2006,06,24,17,51,20.00
2006,06,24,17,52,20.00